sat.trackr.live / text

‹ back to catalog

ONEWEB-0366

NORAD 49292 · 2021-090P

PAYLOAD ACTIVE UNKNOWN

§ Identity

Operator
Country
UK
Launch date
2021-10-14
Launch site
VOSTO
Launch vehicle
Mass (kg)
RCS (m²)

Purposes: comms

External: N2YO · Heavens-Above · Gunter

§ Orbital elements

Epoch: 2026-09-19T23:23:57.978240Z

Period
109.55 min
Inclination
87.8898°
Eccentricity
0.0001917
Mean motion
13.14503956 rev/d
Perigee alt
1,204.3 km
Apogee alt
1,207.2 km
Semi-major
7,583.9 km
B*
-4.5666e-4
RAAN
270.8011°
Arg perigee
91.4906°
Mean anomaly
268.6443°
Rev number
24,001

§ Raw data

ONEWEB-03661 49292U 21090P   26262.97497660 -.00000157  00000+0 -45666-3 0  99982 49292  87.8898 270.8011 0001917  91.4906 268.6443 13.14503956240019

JSON: /api/v1/satellites/49292 · /tle

For live sub-satellite position, see the globe view (requires WebGL).

§ Visibility from observer

Set your observer location to see the next 7 days of passes ≥ 10°. The values pass through the URL so the page stays shareable.

No JS? Fill the form by hand. The geolocation button needs JavaScript.